This demonstration page uses our WeatherBlox Daily Observations layout. Learn more.

39.92423, -83.80882

Hourly Observations for December 9, 2017

Temp ( °F °C ) Dew Point ( °F °C ) Humidity (%) Winds ( mph kmh ) Pressure ( in mb ) Visibility ( mi km ) Precip ( " mm )
12:56 am 00:56 Clear 21 -6.1 13 -10.6 71 71 WSW 7 11 29.96 1015 10 16.0934 0 0
1:56 am 01:56 Clear 19 -7.2 12 -11.1 74 74 SW 5 7 29.94 1014 10 16.0934 0 0
2:56 am 02:56 Clear 19 -7.2 12 -11.1 74 74 SSW 7 11 29.93 1014 10 16.0934 0 0
3:56 am 03:56 Clear 19 -7.2 12 -11.1 74 74 S 7 11 29.9 1013 10 16.0934 0 0
4:56 am 04:56 Partly Cloudy 20 -6.7 12 -11.1 71 71 S 5 7 29.88 1012 10 16.0934 0 0
5:56 am 05:56 Mostly Cloudy 19 -7.2 12 -11.1 74 74 SSW 5 7 29.87 1011 10 16.0934 0 0
6:56 am 06:56 Cloudy 21 -6.1 14 -10 74 74 S 5 7 29.86 1011 10 16.0934 0 0
7:56 am 07:56 Cloudy 22 -5.6 15 -9.4 75 75 S 9 15 29.85 1011 10 16.0934 0 0
8:56 am 08:56 Cloudy 24 -4.4 16 -8.9 71 71 S 10 17 29.83 1010 10 16.0934 0 0
9:56 am 09:56 Cloudy 26 -3.3 17 -8.3 69 69 S 9 15 29.81 1010 10 16.0934 0 0
10:56 am 10:56 Cloudy with Light Snow 27 -2.8 17 -8.3 66 66 S 9 15 29.8 1009 8 12.87472 0 0.0254
11:56 am 11:56 Cloudy 28 -2.2 20 -6.7 72 72 S 9 15 29.78 1008 10 16.0934 0 0.0254
12:56 pm 12:56 Cloudy with Light Snow 26 -3.3 22 -5.6 84 84 SW 13 20 29.78 1008 3 4.82802 0 0.0254
1:46 pm 13:46 Cloudy with Light Snow 27 -3 21 -6 80 80 SW 10 17 29.8 1009 5 8.0467 0 0.0254
1:56 pm 13:56 Cloudy with Light Snow 26 -3.3 22 -5.6 84 84 SW 13 20 29.78 1008 3 4.82802 0 0.0254
2:16 pm 14:16 Cloudy with Light Snow 27 -3 21 -6 80 80 SW 12 19 29.8 1009 4 6.43736 0 0.0254
2:56 pm 14:56 Cloudy with Light Snow 26 -3.3 22 -5.6 84 84 SW 12 19 29.79 1009 5 8.0467 0 0.0254
3:56 pm 15:56 Cloudy with Light Snow 26 -3.3 23 -5 88 88 WSW 10 17 29.82 1010 3 4.82802 0 0.0254
4:15 pm 16:15 Cloudy with Light Snow 27 -3 23 -5 86 86 SW 9 15 29.83 1010 2.5 4.02335 0 0.0254
4:25 pm 16:25 Cloudy with Light Snow 27 -3 23 -5 86 86 SW 10 17 29.85 1011 4 6.43736 0 0.0254
4:56 pm 16:56 Cloudy with Light Snow 26 -3.3 24 -4.4 92 92 SW 12 19 29.84 1011 9 14.48406 0 0.0254
5:30 pm 17:30 Cloudy with Light Snow 27 -3 25 -4 93 93 SW 9 15 29.85 1011 2.5 4.02335 0 0.0254
5:39 pm 17:39 Cloudy with Light Snow 27 -3 25 -4 93 93 SW 10 17 29.85 1011 4 6.43736 0 0.0254
5:56 pm 17:56 Cloudy with Light Snow 26 -3.3 24 -4.4 92 92 SW 12 19 29.87 1012 7 11.26538 0 0.0254
6:40 pm 18:40 Cloudy with Light Snow 27 -3 25 -4 93 93 WSW 13 20 29.88 1012 2 3.21868 0 0.0254
6:53 pm 18:53 Cloudy with Light Snow 27 -3 25 -4 93 93 WSW 13 20 29.88 1012 3 4.82802 0 0.0254
6:56 pm 18:56 Cloudy with Light Snow 27 -2.8 25 -3.9 92 92 WSW 14 22 29.89 1012 3 4.82802 0 0.0254
7:06 pm 19:06 Cloudy with Light Snow 27 -3 25 -4 93 93 WSW 10 17 29.91 1013 2.5 4.02335 0 0.0254
7:12 pm 19:12 Cloudy with Light Snow 27 -3 25 -4 93 93 WSW 9 15 29.91 1013 1 1.60934 0 0.0254
7:21 pm 19:21 Cloudy with Light Snow 27 -3 25 -4 93 93 WSW 15 24 29.91 1013 2 3.21868 0 0.0254
7:56 pm 19:56 Cloudy with Light Snow 27 -2.8 25 -3.9 92 92 WSW 13 20 29.9 1013 1.5 2.41401 0 0.0254
8:19 pm 20:19 Cloudy with Light Snow 27 -3 25 -4 93 93 W 13 20 29.91 1013 3 4.82802 0 0.0254
8:56 pm 20:56 Cloudy with Light Snow 27 -2.8 25 -3.9 92 92 W 12 19 29.93 1013 3 4.82802 0 0.0254
9:56 pm 21:56 Cloudy with Light Snow 28 -2.2 26 -3.3 92 92 WNW 13 20 29.96 1015 8 12.87472 0 0.0254
10:09 pm 22:09 Cloudy with Light Snow 28 -2 27 -3 93 93 NW 17 28 30 1016 9 14.48406 0 0.0254
10:20 pm 22:20 Cloudy 28 -2 25 -4 86 86 NW 15 24 30 1016 9 14.48406 0 0.0254
10:43 pm 22:43 Cloudy 28 -2 25 -4 86 86 NW 14 22 30 1016 10 16.0934 0 0.0254
10:56 pm 22:56 Cloudy 28 -2.2 23 -5 81 81 NW 14 22 30 1016 10 16.0934 0 0.0254
11:56 pm 23:56 Cloudy 28 -2.2 24 -4.4 85 85 WNW 12 19 30.02 1017 10 16.0934 0 0

Powered by AerisWeather